Year,Month,Day,Hour,Minute,Value (Times are PST for temperature in C)
2015,06,25,00,00,14.10
2015,06,25,00,01,14.10
2015,06,25,00,02,14.10
2015,06,25,00,03,14.10
2015,06,25,00,04,14.10
2015,06,25,00,05,14.00
2015,06,25,00,06,14.00
2015,06,25,00,07,14.00
2015,06,25,00,08,14.00
2015,06,25,00,09,14.00
2015,06,25,00,10,13.90
2015,06,25,00,11,13.90
2015,06,25,00,12,13.90
2015,06,25,00,13,13.90
2015,06,25,00,14,13.90
2015,06,25,00,15,13.90
2015,06,25,00,16,13.80
2015,06,25,00,17,13.80
2015,06,25,00,18,13.80
2015,06,25,00,19,13.80
2015,06,25,00,20,13.80
2015,06,25,00,21,13.80
2015,06,25,00,22,13.80
2015,06,25,00,23,13.80
2015,06,25,00,24,13.80
2015,06,25,00,25,13.70
2015,06,25,00,26,13.70
2015,06,25,00,27,13.70
2015,06,25,00,28,13.70
2015,06,25,00,29,13.70
2015,06,25,00,30,13.70
2015,06,25,00,31,13.70
2015,06,25,00,32,13.70
2015,06,25,00,33,13.70
2015,06,25,00,34,13.60
2015,06,25,00,35,13.60
2015,06,25,00,36,13.60
2015,06,25,00,37,13.60
2015,06,25,00,38,13.60
2015,06,25,00,39,13.60
2015,06,25,00,40,13.60
2015,06,25,00,41,13.60
2015,06,25,00,42,13.60
2015,06,25,00,43,13.60
2015,06,25,00,44,13.60
2015,06,25,00,45,13.60
2015,06,25,00,46,13.60
2015,06,25,00,47,13.60
2015,06,25,00,48,13.60
2015,06,25,00,49,13.60
2015,06,25,00,50,13.60
2015,06,25,00,51,13.50
2015,06,25,00,52,13.50
2015,06,25,00,53,13.50
2015,06,25,00,54,13.50
2015,06,25,00,55,13.50
2015,06,25,00,56,13.50
2015,06,25,00,57,13.50
2015,06,25,00,58,13.40
2015,06,25,00,59,13.40
2015,06,25,01,00,13.40
2015,06,25,01,01,13.40
2015,06,25,01,02,13.30
2015,06,25,01,03,13.30
2015,06,25,01,04,13.30
2015,06,25,01,05,13.30
2015,06,25,01,06,13.30
2015,06,25,01,07,13.30
2015,06,25,01,08,13.30
2015,06,25,01,09,13.30
2015,06,25,01,10,13.20
2015,06,25,01,11,13.20
2015,06,25,01,12,13.20
2015,06,25,01,13,13.20
2015,06,25,01,14,13.20
2015,06,25,01,15,13.20
2015,06,25,01,16,13.20
2015,06,25,01,17,13.10
2015,06,25,01,18,13.10
2015,06,25,01,19,13.10
2015,06,25,01,20,13.10
2015,06,25,01,21,13.10
2015,06,25,01,22,13.10
2015,06,25,01,23,13.10
2015,06,25,01,24,13.00
2015,06,25,01,25,13.00
2015,06,25,01,26,13.00
2015,06,25,01,27,13.00
2015,06,25,01,28,13.00
2015,06,25,01,29,12.90
2015,06,25,01,30,12.90
2015,06,25,01,31,12.90
2015,06,25,01,32,12.90
2015,06,25,01,33,12.90
2015,06,25,01,34,12.90
2015,06,25,01,35,12.90
2015,06,25,01,36,12.90
2015,06,25,01,37,12.90
2015,06,25,01,38,12.90
2015,06,25,01,39,12.90
2015,06,25,01,40,12.90
2015,06,25,01,41,12.80
2015,06,25,01,42,12.80
2015,06,25,01,43,12.80
2015,06,25,01,44,12.80
2015,06,25,01,45,12.90
2015,06,25,01,46,12.80
2015,06,25,01,47,12.80
2015,06,25,01,48,12.80
2015,06,25,01,49,12.80
2015,06,25,01,50,12.80
2015,06,25,01,51,12.80
2015,06,25,01,52,12.80
2015,06,25,01,53,12.80
2015,06,25,01,54,12.80
2015,06,25,01,55,12.80
2015,06,25,01,56,12.80
2015,06,25,01,57,12.80
2015,06,25,01,58,12.80
2015,06,25,01,59,12.80
2015,06,25,02,00,12.80
2015,06,25,02,01,12.80
2015,06,25,02,02,12.80
2015,06,25,02,03,12.80
2015,06,25,02,04,12.80
2015,06,25,02,05,12.80
2015,06,25,02,06,12.70
2015,06,25,02,07,12.70
2015,06,25,02,08,12.70
2015,06,25,02,09,12.70
2015,06,25,02,10,12.70
2015,06,25,02,11,12.70
2015,06,25,02,12,12.70
2015,06,25,02,13,12.70
2015,06,25,02,14,12.70
2015,06,25,02,15,12.70
2015,06,25,02,16,12.70
2015,06,25,02,17,12.70
2015,06,25,02,18,12.70
2015,06,25,02,19,12.70
2015,06,25,02,20,12.60
2015,06,25,02,21,12.60
2015,06,25,02,22,12.60
2015,06,25,02,23,12.60
2015,06,25,02,24,12.60
2015,06,25,02,25,12.60
2015,06,25,02,26,12.60
2015,06,25,02,27,12.60
2015,06,25,02,28,12.60
2015,06,25,02,29,12.60
2015,06,25,02,30,12.60
2015,06,25,02,31,12.60
2015,06,25,02,32,12.60
2015,06,25,02,33,12.50
2015,06,25,02,34,12.50
2015,06,25,02,35,12.50
2015,06,25,02,36,12.50
2015,06,25,02,37,12.50
2015,06,25,02,38,12.40
2015,06,25,02,39,12.40
2015,06,25,02,40,12.40
2015,06,25,02,41,12.40
2015,06,25,02,42,12.40
2015,06,25,02,43,12.40
2015,06,25,02,44,12.40
2015,06,25,02,45,12.40
2015,06,25,02,46,12.40
2015,06,25,02,47,12.40
2015,06,25,02,48,12.40
2015,06,25,02,49,12.40
2015,06,25,02,50,12.40
2015,06,25,02,51,12.40
2015,06,25,02,52,12.30
2015,06,25,02,53,12.30
2015,06,25,02,54,12.30
2015,06,25,02,55,12.30
2015,06,25,02,56,12.30
2015,06,25,02,57,12.30
2015,06,25,02,58,12.30
2015,06,25,02,59,12.30
2015,06,25,03,00,12.30
2015,06,25,03,01,12.30
2015,06,25,03,02,12.30
2015,06,25,03,03,12.30
2015,06,25,03,04,12.30
2015,06,25,03,05,12.30
2015,06,25,03,06,12.30
2015,06,25,03,07,12.30
2015,06,25,03,08,12.30
2015,06,25,03,09,12.30
2015,06,25,03,10,12.30
2015,06,25,03,11,12.30
2015,06,25,03,12,12.30
2015,06,25,03,13,12.30
2015,06,25,03,14,12.30
2015,06,25,03,15,12.20
2015,06,25,03,16,12.20
2015,06,25,03,17,12.20
2015,06,25,03,18,12.20
2015,06,25,03,19,12.20
2015,06,25,03,20,12.20
2015,06,25,03,21,12.20
2015,06,25,03,22,12.20
2015,06,25,03,23,12.20
2015,06,25,03,24,12.20
2015,06,25,03,25,12.10
2015,06,25,03,26,12.10
2015,06,25,03,27,12.10
2015,06,25,03,28,12.10
2015,06,25,03,29,12.10
2015,06,25,03,30,12.10
2015,06,25,03,31,12.10
2015,06,25,03,32,12.10
2015,06,25,03,33,12.10
2015,06,25,03,34,12.10
2015,06,25,03,35,12.10
2015,06,25,03,36,12.10
2015,06,25,03,37,12.10
2015,06,25,03,38,12.00
2015,06,25,03,39,12.00
2015,06,25,03,40,12.00
2015,06,25,03,41,12.00
2015,06,25,03,42,12.00
2015,06,25,03,43,12.00
2015,06,25,03,44,11.90
2015,06,25,03,45,11.90
2015,06,25,03,46,11.90
2015,06,25,03,47,11.90
2015,06,25,03,48,11.90
2015,06,25,03,49,11.90
2015,06,25,03,50,11.90
2015,06,25,03,51,11.90
2015,06,25,03,52,11.90
2015,06,25,03,53,11.90
2015,06,25,03,54,11.90
2015,06,25,03,55,11.90
2015,06,25,03,56,11.90
2015,06,25,03,57,11.90
2015,06,25,03,58,11.90
2015,06,25,03,59,11.90
2015,06,25,04,00,11.90
2015,06,25,04,01,11.90
2015,06,25,04,02,11.90
2015,06,25,04,03,11.90
2015,06,25,04,04,11.90
2015,06,25,04,05,11.90
2015,06,25,04,06,11.80
2015,06,25,04,07,11.80
2015,06,25,04,08,11.80
2015,06,25,04,09,11.80
2015,06,25,04,10,11.80
2015,06,25,04,11,11.80
2015,06,25,04,12,11.80
2015,06,25,04,13,11.80
2015,06,25,04,14,11.80
2015,06,25,04,15,11.80
2015,06,25,04,16,11.80
2015,06,25,04,17,11.80
2015,06,25,04,18,11.80
2015,06,25,04,19,11.80
2015,06,25,04,20,11.80
2015,06,25,04,21,11.80
2015,06,25,04,22,11.80
2015,06,25,04,23,11.80
2015,06,25,04,24,11.80
2015,06,25,04,25,11.80
2015,06,25,04,26,11.80
2015,06,25,04,27,11.80
2015,06,25,04,28,11.80
2015,06,25,04,29,11.80
2015,06,25,04,30,11.90
2015,06,25,04,31,11.90
2015,06,25,04,32,11.90
2015,06,25,04,33,11.90
2015,06,25,04,34,11.90
2015,06,25,04,35,11.90
2015,06,25,04,36,11.90
2015,06,25,04,37,11.90
2015,06,25,04,38,11.90
2015,06,25,04,39,11.90
2015,06,25,04,40,11.90
2015,06,25,04,41,11.90
2015,06,25,04,42,11.90
2015,06,25,04,43,11.90
2015,06,25,04,44,11.90
2015,06,25,04,45,11.90
2015,06,25,04,46,11.90
2015,06,25,04,47,11.90
2015,06,25,04,48,11.90
2015,06,25,04,49,11.90
2015,06,25,04,50,11.90
2015,06,25,04,51,11.90
2015,06,25,04,52,11.90
2015,06,25,04,53,11.90
2015,06,25,04,54,11.90
2015,06,25,04,55,11.90
2015,06,25,04,56,12.00
2015,06,25,04,57,12.00
2015,06,25,04,58,12.00
2015,06,25,04,59,12.00
2015,06,25,05,00,12.00
2015,06,25,05,01,12.00
2015,06,25,05,02,12.00
2015,06,25,05,03,12.00
2015,06,25,05,04,12.00
2015,06,25,05,05,12.00
2015,06,25,05,06,12.00
2015,06,25,05,07,12.10
2015,06,25,05,08,12.10
2015,06,25,05,09,12.10
2015,06,25,05,10,12.10
2015,06,25,05,11,12.10
2015,06,25,05,12,12.10
2015,06,25,05,13,12.10
2015,06,25,05,14,12.10
2015,06,25,05,15,12.10
2015,06,25,05,16,12.10
2015,06,25,05,17,12.10
2015,06,25,05,18,12.10
2015,06,25,05,19,12.10
2015,06,25,05,20,12.10
2015,06,25,05,21,12.10
2015,06,25,05,22,12.10
2015,06,25,05,23,12.10
2015,06,25,05,24,12.00
2015,06,25,05,25,12.00
2015,06,25,05,26,12.00
2015,06,25,05,27,12.00
2015,06,25,05,28,12.00
2015,06,25,05,29,12.00
2015,06,25,05,30,12.00
2015,06,25,05,31,12.00
2015,06,25,05,32,12.00
2015,06,25,05,33,12.00
2015,06,25,05,34,12.00
2015,06,25,05,35,12.00
2015,06,25,05,36,11.90
2015,06,25,05,37,11.90
2015,06,25,05,38,11.90
2015,06,25,05,39,11.90
2015,06,25,05,40,11.90
2015,06,25,05,41,11.90
2015,06,25,05,42,11.90
2015,06,25,05,43,11.90
2015,06,25,05,44,11.90
2015,06,25,05,45,11.90
2015,06,25,05,46,11.90
2015,06,25,05,47,11.90
2015,06,25,05,48,11.90
2015,06,25,05,49,11.80
2015,06,25,05,50,11.80
2015,06,25,05,51,11.80
2015,06,25,05,52,11.80
2015,06,25,05,53,11.80
2015,06,25,05,54,11.80
2015,06,25,05,55,11.80
2015,06,25,05,56,11.80
2015,06,25,05,57,11.80
2015,06,25,05,58,11.80
2015,06,25,05,59,11.80
2015,06,25,06,00,11.80
2015,06,25,06,01,11.80
2015,06,25,06,02,11.80
2015,06,25,06,03,11.80
2015,06,25,06,04,11.80
2015,06,25,06,05,11.80
2015,06,25,06,06,11.80
2015,06,25,06,07,11.80
2015,06,25,06,08,11.80
2015,06,25,06,09,11.80
2015,06,25,06,10,11.80
2015,06,25,06,11,11.80
2015,06,25,06,12,11.70
2015,06,25,06,13,11.70
2015,06,25,06,14,11.70
2015,06,25,06,15,11.70
2015,06,25,06,16,11.70
2015,06,25,06,17,11.70
2015,06,25,06,18,11.70
2015,06,25,06,19,11.70
2015,06,25,06,20,11.70
2015,06,25,06,21,11.70
2015,06,25,06,22,11.70
2015,06,25,06,23,11.70
2015,06,25,06,24,11.70
2015,06,25,06,25,11.70
2015,06,25,06,26,11.70
2015,06,25,06,27,11.70
2015,06,25,06,28,11.70
2015,06,25,06,29,11.70
2015,06,25,06,30,11.70
2015,06,25,06,31,11.70
2015,06,25,06,32,11.70
2015,06,25,06,33,11.70
2015,06,25,06,34,11.70
2015,06,25,06,35,11.70
2015,06,25,06,36,11.70
2015,06,25,06,37,11.70
2015,06,25,06,38,11.70
2015,06,25,06,39,11.70
2015,06,25,06,40,11.70
2015,06,25,06,41,11.80
2015,06,25,06,42,11.80
2015,06,25,06,43,11.80
2015,06,25,06,44,11.80
2015,06,25,06,45,11.80
2015,06,25,06,46,11.80
2015,06,25,06,47,11.80
2015,06,25,06,48,11.80
2015,06,25,06,49,11.80
2015,06,25,06,50,11.80
2015,06,25,06,51,11.80
2015,06,25,06,52,11.90
2015,06,25,06,53,11.90
2015,06,25,06,54,11.90
2015,06,25,06,55,11.90
2015,06,25,06,56,12.00
2015,06,25,06,57,12.00
2015,06,25,06,58,12.00
2015,06,25,06,59,12.00
2015,06,25,07,00,12.10
2015,06,25,07,01,12.10
2015,06,25,07,02,12.10
2015,06,25,07,03,12.10
2015,06,25,07,04,12.20
2015,06,25,07,05,12.20
2015,06,25,07,06,12.20
2015,06,25,07,07,12.30
2015,06,25,07,08,12.30
2015,06,25,07,09,12.30
2015,06,25,07,10,12.30
2015,06,25,07,11,12.40
2015,06,25,07,12,12.40
2015,06,25,07,13,12.40
2015,06,25,07,14,12.50
2015,06,25,07,15,12.50
2015,06,25,07,16,12.60
2015,06,25,07,17,12.60
2015,06,25,07,18,12.60
2015,06,25,07,19,12.70
2015,06,25,07,20,12.70
2015,06,25,07,21,12.80
2015,06,25,07,22,12.90
2015,06,25,07,23,13.00
2015,06,25,07,24,13.10
2015,06,25,07,25,13.20
2015,06,25,07,26,13.40
2015,06,25,07,27,13.50
2015,06,25,07,28,13.60
2015,06,25,07,29,13.70
2015,06,25,07,30,14.00
2015,06,25,07,31,14.10
2015,06,25,07,32,14.30
2015,06,25,07,33,14.40
2015,06,25,07,34,14.60
2015,06,25,07,35,14.80
2015,06,25,07,36,15.00
2015,06,25,07,37,15.00
2015,06,25,07,38,15.20
2015,06,25,07,39,15.40
2015,06,25,07,40,15.50
2015,06,25,07,41,15.70
2015,06,25,07,42,15.90
2015,06,25,07,43,16.00
2015,06,25,07,44,16.20
2015,06,25,07,45,16.30
2015,06,25,07,46,16.50
2015,06,25,07,47,16.60
2015,06,25,07,48,16.80
2015,06,25,07,49,16.90
2015,06,25,07,50,17.10
2015,06,25,07,51,17.20
2015,06,25,07,52,17.30
2015,06,25,07,53,17.40
2015,06,25,07,54,17.50
2015,06,25,07,55,17.60
2015,06,25,07,56,17.70
2015,06,25,07,57,17.80
2015,06,25,07,58,17.80
2015,06,25,07,59,17.90
2015,06,25,08,00,18.00
2015,06,25,08,01,18.10
2015,06,25,08,02,18.20
2015,06,25,08,03,18.20
2015,06,25,08,04,18.30
2015,06,25,08,05,18.40
2015,06,25,08,06,18.40
2015,06,25,08,07,18.50
2015,06,25,08,08,18.60
2015,06,25,08,09,18.60
2015,06,25,08,10,18.70
2015,06,25,08,11,18.80
2015,06,25,08,12,18.90
2015,06,25,08,13,18.90
2015,06,25,08,14,19.00
2015,06,25,08,15,19.10
2015,06,25,08,16,19.20
2015,06,25,08,17,19.30
2015,06,25,08,18,19.40
2015,06,25,08,19,19.40
2015,06,25,08,20,19.50
2015,06,25,08,21,19.60
2015,06,25,08,22,19.60
2015,06,25,08,23,19.70
2015,06,25,08,24,19.80
2015,06,25,08,25,19.90
2015,06,25,08,26,19.90
2015,06,25,08,27,20.00
2015,06,25,08,28,20.10
2015,06,25,08,29,20.10
2015,06,25,08,30,20.10
2015,06,25,08,31,20.10
2015,06,25,08,32,20.10
2015,06,25,08,33,20.10
2015,06,25,08,34,20.20
2015,06,25,08,35,20.20
2015,06,25,08,36,20.30
2015,06,25,08,37,20.30
2015,06,25,08,38,20.30
2015,06,25,08,39,20.40
2015,06,25,08,40,20.40
2015,06,25,08,41,20.50
2015,06,25,08,42,20.60
2015,06,25,08,43,20.70
2015,06,25,08,44,20.80
2015,06,25,08,45,20.90
2015,06,25,08,46,20.90
2015,06,25,08,47,21.00
2015,06,25,08,48,21.10
2015,06,25,08,49,21.20
2015,06,25,08,50,21.20
2015,06,25,08,51,21.30
2015,06,25,08,52,21.30
2015,06,25,08,53,21.40
2015,06,25,08,54,21.40
2015,06,25,08,55,21.50
2015,06,25,08,56,21.50
2015,06,25,08,57,21.40
2015,06,25,08,58,21.30
2015,06,25,08,59,21.30
2015,06,25,09,00,21.20
2015,06,25,09,01,21.10
2015,06,25,09,02,21.10
2015,06,25,09,03,21.10
2015,06,25,09,04,21.20
2015,06,25,09,05,21.30
2015,06,25,09,06,21.30
2015,06,25,09,07,21.40
2015,06,25,09,08,21.40
2015,06,25,09,09,21.50
2015,06,25,09,10,21.50
2015,06,25,09,11,21.60
2015,06,25,09,12,21.60
2015,06,25,09,13,21.60
2015,06,25,09,14,21.70
2015,06,25,09,15,21.70
2015,06,25,09,16,21.70
2015,06,25,09,17,21.70
2015,06,25,09,18,21.70
2015,06,25,09,19,21.80
2015,06,25,09,20,21.80
2015,06,25,09,21,21.80
2015,06,25,09,22,21.80
2015,06,25,09,23,21.90
2015,06,25,09,24,21.90
2015,06,25,09,25,22.00
2015,06,25,09,26,22.10
2015,06,25,09,27,22.20
2015,06,25,09,28,22.20
2015,06,25,09,29,22.20
2015,06,25,09,30,22.30
2015,06,25,09,31,22.30
2015,06,25,09,32,22.30
2015,06,25,09,33,22.40
2015,06,25,09,34,22.40
2015,06,25,09,35,22.50
2015,06,25,09,36,22.60
2015,06,25,09,37,22.70
2015,06,25,09,38,22.70
2015,06,25,09,39,22.70
2015,06,25,09,40,22.60
2015,06,25,09,41,22.50
2015,06,25,09,42,22.50
2015,06,25,09,43,22.60
2015,06,25,09,44,22.70
2015,06,25,09,45,22.70
2015,06,25,09,46,22.70
2015,06,25,09,47,22.80
2015,06,25,09,48,22.80
2015,06,25,09,49,22.90
2015,06,25,09,50,23.00
2015,06,25,09,51,23.10
2015,06,25,09,52,23.20
2015,06,25,09,53,23.20
2015,06,25,09,54,23.10
2015,06,25,09,55,23.10
2015,06,25,09,56,23.00
2015,06,25,09,57,23.00
2015,06,25,09,58,22.90
2015,06,25,09,59,22.80
2015,06,25,10,00,22.80
2015,06,25,10,01,22.80
2015,06,25,10,02,22.80
2015,06,25,10,03,22.70
2015,06,25,10,04,22.70
2015,06,25,10,05,22.80
2015,06,25,10,06,22.90
2015,06,25,10,07,22.90
2015,06,25,10,08,22.90
2015,06,25,10,09,23.00
2015,06,25,10,10,23.00
2015,06,25,10,11,23.00
2015,06,25,10,12,22.90
2015,06,25,10,13,22.80
2015,06,25,10,14,22.80
2015,06,25,10,15,22.70
2015,06,25,10,16,22.70
2015,06,25,10,17,22.80
2015,06,25,10,18,22.80
2015,06,25,10,19,22.80
2015,06,25,10,20,22.70
2015,06,25,10,21,22.70
2015,06,25,10,22,22.80
2015,06,25,10,23,22.80
2015,06,25,10,24,22.90
2015,06,25,10,25,23.00
2015,06,25,10,26,23.10
2015,06,25,10,27,23.10
2015,06,25,10,28,23.20
2015,06,25,10,29,23.20
2015,06,25,10,30,23.30
2015,06,25,10,31,23.30
2015,06,25,10,32,23.40
2015,06,25,10,33,23.50
2015,06,25,10,34,23.60
2015,06,25,10,35,23.70
2015,06,25,10,36,23.70
2015,06,25,10,37,23.80
2015,06,25,10,38,23.80
2015,06,25,10,39,23.80
2015,06,25,10,40,23.90
2015,06,25,10,41,23.90
2015,06,25,10,42,24.00
2015,06,25,10,43,24.00
2015,06,25,10,44,24.00
2015,06,25,10,45,24.00
2015,06,25,10,46,23.90
2015,06,25,10,47,23.90
2015,06,25,10,48,23.70
2015,06,25,10,49,23.60
2015,06,25,10,50,23.50
2015,06,25,10,51,23.50
2015,06,25,10,52,23.50
2015,06,25,10,53,23.60
2015,06,25,10,54,23.60
2015,06,25,10,55,23.70
2015,06,25,10,56,23.80
2015,06,25,10,57,23.80
2015,06,25,10,58,23.90
2015,06,25,10,59,23.90
2015,06,25,11,00,23.90
2015,06,25,11,01,23.90
2015,06,25,11,02,23.90
2015,06,25,11,03,24.00
2015,06,25,11,04,24.00
2015,06,25,11,05,24.10
2015,06,25,11,06,24.20
2015,06,25,11,07,24.30
2015,06,25,11,08,24.30
2015,06,25,11,09,24.40
2015,06,25,11,10,24.40
2015,06,25,11,11,24.50
2015,06,25,11,12,24.60
2015,06,25,11,13,24.60
2015,06,25,11,14,24.60
2015,06,25,11,15,24.70
2015,06,25,11,16,24.60
2015,06,25,11,17,24.50
2015,06,25,11,18,24.40
2015,06,25,11,19,24.30
2015,06,25,11,20,24.20
2015,06,25,11,21,24.20
2015,06,25,11,22,24.20
2015,06,25,11,23,24.20
2015,06,25,11,24,24.10
2015,06,25,11,25,24.10
2015,06,25,11,26,24.10
2015,06,25,11,27,24.10
2015,06,25,11,28,24.20
2015,06,25,11,29,24.20
2015,06,25,11,30,24.20
2015,06,25,11,31,24.20
2015,06,25,11,32,24.30
2015,06,25,11,33,24.30
2015,06,25,11,34,24.40
2015,06,25,11,35,24.30
2015,06,25,11,36,24.40
2015,06,25,11,37,24.50
2015,06,25,11,38,24.60
2015,06,25,11,39,24.70
2015,06,25,11,40,24.80
2015,06,25,11,41,24.90
2015,06,25,11,42,24.90
2015,06,25,11,43,25.00
2015,06,25,11,44,25.10
2015,06,25,11,45,25.10
2015,06,25,11,46,25.10
2015,06,25,11,47,25.10
2015,06,25,11,48,25.10
2015,06,25,11,49,25.10
2015,06,25,11,50,25.10
2015,06,25,11,51,25.10
2015,06,25,11,52,25.10
2015,06,25,11,53,25.10
2015,06,25,11,54,25.20
2015,06,25,11,55,25.20
2015,06,25,11,56,25.30
2015,06,25,11,57,25.40
2015,06,25,11,58,25.50
2015,06,25,11,59,25.60
2015,06,25,12,00,25.60
2015,06,25,12,01,25.60
2015,06,25,12,02,25.50
2015,06,25,12,03,25.50
2015,06,25,12,04,25.40
2015,06,25,12,05,25.40
2015,06,25,12,06,25.30
2015,06,25,12,07,25.30
2015,06,25,12,08,25.40
2015,06,25,12,09,25.40
2015,06,25,12,10,25.40
2015,06,25,12,11,25.20
2015,06,25,12,12,25.20
2015,06,25,12,13,25.10
2015,06,25,12,14,25.00
2015,06,25,12,15,24.90
2015,06,25,12,16,25.00
2015,06,25,12,17,25.00
2015,06,25,12,18,25.10
2015,06,25,12,19,25.00
2015,06,25,12,20,25.00
2015,06,25,12,21,25.10
2015,06,25,12,22,25.10
2015,06,25,12,23,25.20
2015,06,25,12,24,25.20
2015,06,25,12,25,25.10
2015,06,25,12,26,25.10
2015,06,25,12,27,25.20
2015,06,25,12,28,25.20
2015,06,25,12,29,25.30
2015,06,25,12,30,25.30
2015,06,25,12,31,25.20
2015,06,25,12,32,25.10
2015,06,25,12,33,25.10
2015,06,25,12,34,25.10
2015,06,25,12,35,25.10
2015,06,25,12,36,25.10
2015,06,25,12,37,25.10
2015,06,25,12,38,25.10
2015,06,25,12,39,25.00
2015,06,25,12,40,24.90
2015,06,25,12,41,24.80
2015,06,25,12,42,24.70
2015,06,25,12,43,24.70
2015,06,25,12,44,24.60
2015,06,25,12,45,24.50
2015,06,25,12,46,24.40
2015,06,25,12,47,24.30
2015,06,25,12,48,24.30
2015,06,25,12,49,24.30
2015,06,25,12,50,24.30
2015,06,25,12,51,24.30
2015,06,25,12,52,24.30
2015,06,25,12,53,24.30
2015,06,25,12,54,24.40
2015,06,25,12,55,24.40
2015,06,25,12,56,24.50
2015,06,25,12,57,24.50
2015,06,25,12,58,24.50
2015,06,25,12,59,24.40
2015,06,25,13,00,24.40
2015,06,25,13,01,24.40
2015,06,25,13,02,24.40
2015,06,25,13,03,24.40
2015,06,25,13,04,24.50
2015,06,25,13,05,24.60
2015,06,25,13,06,24.60
2015,06,25,13,07,24.60
2015,06,25,13,08,24.60
2015,06,25,13,09,24.60
2015,06,25,13,10,24.70
2015,06,25,13,11,24.80
2015,06,25,13,12,24.80
2015,06,25,13,13,24.80
2015,06,25,13,14,24.80
2015,06,25,13,15,24.80
2015,06,25,13,16,24.80
2015,06,25,13,17,24.80
2015,06,25,13,18,24.80
2015,06,25,13,19,24.70
2015,06,25,13,20,24.70
2015,06,25,13,21,24.80
2015,06,25,13,22,24.80
2015,06,25,13,23,24.90
2015,06,25,13,24,25.00
2015,06,25,13,25,25.10
2015,06,25,13,26,25.20
2015,06,25,13,27,25.30
2015,06,25,13,28,25.40
2015,06,25,13,29,25.30
2015,06,25,13,30,25.20
2015,06,25,13,31,25.20
2015,06,25,13,32,25.20
2015,06,25,13,33,25.20
2015,06,25,13,34,25.20
2015,06,25,13,35,25.20
2015,06,25,13,36,25.20
2015,06,25,13,37,25.10
2015,06,25,13,38,25.00
2015,06,25,13,39,24.90
2015,06,25,13,40,24.80
2015,06,25,13,41,24.80
2015,06,25,13,42,24.80
2015,06,25,13,43,24.70
2015,06,25,13,44,24.70
2015,06,25,13,45,24.60
2015,06,25,13,46,24.60
2015,06,25,13,47,24.60
2015,06,25,13,48,24.60
2015,06,25,13,49,24.70
2015,06,25,13,50,24.80
2015,06,25,13,51,24.90
2015,06,25,13,52,25.00
2015,06,25,13,53,25.00
2015,06,25,13,54,25.10
2015,06,25,13,55,25.10
2015,06,25,13,56,25.10
2015,06,25,13,57,25.20
2015,06,25,13,58,25.20
2015,06,25,13,59,25.30
2015,06,25,14,00,25.40
2015,06,25,14,01,25.50
2015,06,25,14,02,25.60
2015,06,25,14,03,25.70
2015,06,25,14,04,25.70
2015,06,25,14,05,25.70
2015,06,25,14,06,25.70
2015,06,25,14,07,25.80
2015,06,25,14,08,25.80
2015,06,25,14,09,25.90
2015,06,25,14,10,25.90
2015,06,25,14,11,26.00
2015,06,25,14,12,26.20
2015,06,25,14,13,26.30
2015,06,25,14,14,26.30
2015,06,25,14,15,26.20
2015,06,25,14,16,26.10
2015,06,25,14,17,26.20
2015,06,25,14,18,26.30
2015,06,25,14,19,26.40
2015,06,25,14,20,26.50
2015,06,25,14,21,26.60
2015,06,25,14,22,26.60
2015,06,25,14,23,26.70
2015,06,25,14,24,26.80
2015,06,25,14,25,26.90
2015,06,25,14,26,26.90
2015,06,25,14,27,27.10
2015,06,25,14,28,27.20
2015,06,25,14,29,27.30
2015,06,25,14,30,27.40
2015,06,25,14,31,27.50
2015,06,25,14,32,27.50
2015,06,25,14,33,27.60
2015,06,25,14,34,27.70
2015,06,25,14,35,27.60
2015,06,25,14,36,27.50
2015,06,25,14,37,27.30
2015,06,25,14,38,27.10
2015,06,25,14,39,27.00
2015,06,25,14,40,27.00
2015,06,25,14,41,27.00
2015,06,25,14,42,27.00
2015,06,25,14,43,27.00
2015,06,25,14,44,27.10
2015,06,25,14,45,27.10
2015,06,25,14,46,27.10
2015,06,25,14,47,27.10
2015,06,25,14,48,27.10
2015,06,25,14,49,27.10
2015,06,25,14,50,27.30
2015,06,25,14,51,27.40
2015,06,25,14,52,27.60
2015,06,25,14,53,27.70
2015,06,25,14,54,27.90
2015,06,25,14,55,28.00
2015,06,25,14,56,28.10
2015,06,25,14,57,28.10
2015,06,25,14,58,28.10
2015,06,25,14,59,28.10
2015,06,25,15,00,28.20
2015,06,25,15,01,28.20
2015,06,25,15,02,28.20
2015,06,25,15,03,28.20
2015,06,25,15,04,28.20
2015,06,25,15,05,28.30
2015,06,25,15,06,28.30
2015,06,25,15,07,28.40
2015,06,25,15,08,28.20
2015,06,25,15,09,28.20
2015,06,25,15,10,28.10
2015,06,25,15,11,28.10
2015,06,25,15,12,28.20
2015,06,25,15,13,28.20
2015,06,25,15,14,28.20
2015,06,25,15,15,28.20
2015,06,25,15,16,28.10
2015,06,25,15,17,27.80
2015,06,25,15,18,27.60
2015,06,25,15,19,27.50
2015,06,25,15,20,27.50
2015,06,25,15,21,27.40
2015,06,25,15,22,27.40
2015,06,25,15,23,27.50
2015,06,25,15,24,27.50
2015,06,25,15,25,27.50
2015,06,25,15,26,27.50
2015,06,25,15,27,27.50
2015,06,25,15,28,27.50
2015,06,25,15,29,27.40
2015,06,25,15,30,27.50
2015,06,25,15,31,27.60
2015,06,25,15,32,27.50
2015,06,25,15,33,27.60
2015,06,25,15,34,27.60
2015,06,25,15,35,27.60
2015,06,25,15,36,27.60
2015,06,25,15,37,27.60
2015,06,25,15,38,27.50
2015,06,25,15,39,27.50
2015,06,25,15,40,27.60
2015,06,25,15,41,27.50
2015,06,25,15,42,27.50
2015,06,25,15,43,27.50
2015,06,25,15,44,27.50
2015,06,25,15,45,27.50
2015,06,25,15,46,27.60
2015,06,25,15,47,27.70
2015,06,25,15,48,27.80
2015,06,25,15,49,27.80
2015,06,25,15,50,27.80
2015,06,25,15,51,27.80
2015,06,25,15,52,27.80
2015,06,25,15,53,27.80
2015,06,25,15,54,27.70
2015,06,25,15,55,27.60
2015,06,25,15,56,27.50
2015,06,25,15,57,27.50
2015,06,25,15,58,27.40
2015,06,25,15,59,27.40
2015,06,25,16,00,27.40
2015,06,25,16,01,27.30
2015,06,25,16,02,27.20
2015,06,25,16,03,27.20
2015,06,25,16,04,27.10
2015,06,25,16,05,27.10
2015,06,25,16,06,27.20
2015,06,25,16,07,27.20
2015,06,25,16,08,27.20
2015,06,25,16,09,27.10
2015,06,25,16,10,27.10
2015,06,25,16,11,27.00
2015,06,25,16,12,27.00
2015,06,25,16,13,26.90
2015,06,25,16,14,26.80
2015,06,25,16,15,26.70
2015,06,25,16,16,26.60
2015,06,25,16,17,26.50
2015,06,25,16,18,26.40
2015,06,25,16,19,26.30
2015,06,25,16,20,26.20
2015,06,25,16,21,26.10
2015,06,25,16,22,26.00
2015,06,25,16,23,25.90
2015,06,25,16,24,25.90
2015,06,25,16,25,25.80
2015,06,25,16,26,25.80
2015,06,25,16,27,25.80
2015,06,25,16,28,25.90
2015,06,25,16,29,25.90
2015,06,25,16,30,26.00
2015,06,25,16,31,26.10
2015,06,25,16,32,26.20
2015,06,25,16,33,26.10
2015,06,25,16,34,26.00
2015,06,25,16,35,25.90
2015,06,25,16,36,25.90
2015,06,25,16,37,25.90
2015,06,25,16,38,25.90
2015,06,25,16,39,25.90
2015,06,25,16,40,25.90
2015,06,25,16,41,25.90
2015,06,25,16,42,25.90
2015,06,25,16,43,25.90
2015,06,25,16,44,25.90
2015,06,25,16,45,25.90
2015,06,25,16,46,25.90
2015,06,25,16,47,25.90
2015,06,25,16,48,25.90
2015,06,25,16,49,25.90
2015,06,25,16,50,25.90
2015,06,25,16,51,25.90
2015,06,25,16,52,25.90
2015,06,25,16,53,25.90
2015,06,25,16,54,25.90
2015,06,25,16,55,26.00
2015,06,25,16,56,26.10
2015,06,25,16,57,26.10
2015,06,25,16,58,26.10
2015,06,25,16,59,26.10
2015,06,25,17,00,26.10
2015,06,25,17,01,26.10
2015,06,25,17,02,26.10
2015,06,25,17,03,26.20
2015,06,25,17,04,26.20
2015,06,25,17,05,26.30
2015,06,25,17,06,26.30
2015,06,25,17,07,26.30
2015,06,25,17,08,26.30
2015,06,25,17,09,26.30
2015,06,25,17,10,26.40
2015,06,25,17,11,26.40
2015,06,25,17,12,26.40
2015,06,25,17,13,26.40
2015,06,25,17,14,26.40
2015,06,25,17,15,26.40
2015,06,25,17,16,26.40
2015,06,25,17,17,26.30
2015,06,25,17,18,26.40
2015,06,25,17,19,26.40